[[{"header":{"parameterUnit":"m.s-1","parameterCategory":2,"la1":30.2991,"la2":30.254,"lo1":-89.0895,"lo2":-89.0444,"dy":0.0017,"dx":0.0017,"nx":28,"ny":28,"refTime":"2025-04-26T03:00:00:Z","depth":"0","parameterNumber":2,"parameterNumberName":"U-component_of_CURRENTS"},"data":[0,0,0,0,0,0,0,0,0,0,0,0,0,0,0,0,0,0,0,0,0,0,0,0,0,0,0,0,0,0,0,0,0,0,0,0,0,0,0,0,0,0,0,0,0,0,0,0,0,0,0,0,0,0,0,0,0,0,0.3015,0.3016,0,0.3089,0.3089,0.309,0.3072,0.3071,0.307,0.3069,0.3052,0.3053,0.3053,0,0,0,0,0,0,0,0,0,0,0,0,0,0.284,0.2843,0.3014,0.3016,0.3017,0.3089,0.3089,0.309,0.3072,0.3071,0.307,0.3069,0.3052,0.3053,0.3053,0,0,0,0,0,0,0,0,0,0,0,0,0,0.2911,0.2844,0.3014,0.302,0.3022,0.3089,0.3089,0.309,0.3072,0.3071,0.3069,0.3068,0.3052,0.3053,0.3054,0.3088,0,0,0.3056,0.3056,0,0,0,0,0,0,0,0,0.2907,0.2917,0.3018,0.302,0.3022,0.3074,0.3022,0.3087,0.3073,0.3048,0.3069,0.3067,0.3055,0.3056,0.3068,0.3087,0.3087,0.3056,0.3056,0.3057,0.3057,0,0,0,0,0,0,0,0.2902,0.2914,0.3039,0.302,0.3022,0.3014,0.3022,0.3034,0.3054,0.305,0.305,0.3067,0.3055,0.3067,0.3067,0.3086,0.3056,0.3057,0.3057,0.3057,0.3198,0.3201,0,0,0,0,0,0,0.2906,0.291,0.3037,0.3042,0.2965,0.3019,0.3028,0.3055,0.3056,0.3057,0.3068,0.3066,0.3067,0.3066,0.3066,0.3154,0.3057,0.3057,0.3058,0.3195,0.3199,0.3202,0,0,0,0,0,0,0.2902,0.2917,0.3034,0.298,0.2995,0.3024,0.3054,0.3057,0.3077,0.3071,0.3069,0.3086,0.3065,0.3065,0.3105,0.3151,0.3058,0.3058,0.3191,0.3196,0.32,0.3299,0,0,0,0,0,0,0.2897,0.2915,0.2935,0.2981,0.2998,0.3096,0.3057,0.306,0.3091,0.3089,0.3086,0.3082,0.3064,0.3104,0.3106,0.315,0.3059,0.3187,0.3193,0.3199,0.3292,0.3307,0.332,0,0,0,0,0,0.289,0.293,0.2936,0.2951,0.3025,0.3099,0.3108,0.3118,0.3093,0.3124,0.3123,0.3083,0.3144,0.3108,0.3108,0.3154,0.3184,0.3191,0.3198,0.3286,0.3304,0.332,0,0,0,0,0,0,0.2864,0.2934,0.294,0.2998,0.3054,0.3098,0.3128,0.3131,0.3155,0.3144,0.3122,0.3121,0.318,0.316,0.312,0.3218,0.3159,0.3167,0.3225,0.3242,0.3256,0.3241,0.306,0,0,0,0,0,0.287,0.2918,0.2982,0.303,0.306,0.3094,0.3121,0.3134,0.3163,0.3171,0.3172,0.318,0.3214,0.3219,0.3244,0.3289,0.3276,0.3323,0.3337,0.3349,0.3341,0.3396,0.3413,0.3227,0.3226,0.3226,0,0,0.2871,0.2919,0.2943,0.3028,0.3065,0.3124,0.3106,0.3164,0.3205,0.3166,0.3216,0.3234,0.3242,0.3303,0.3326,0.3286,0.3397,0.3358,0.3368,0.3353,0.3405,0.3423,0.3439,0.3232,0.3231,0.323,0,0,0.2906,0.2945,0.2997,0.3049,0.3122,0.3153,0.3174,0.3232,0.325,0.3309,0.3302,0.3348,0.3381,0.3406,0.3418,0.3526,0.348,0.3536,0.3579,0.3634,0.3649,0.3662,0.3666,0.3679,0.353,0.3531,0.3531,0,0.2898,0.2976,0.3024,0.3089,0.3131,0.3169,0.3228,0.3268,0.3328,0.335,0.3336,0.3424,0.3432,0.3509,0.3548,0.3555,0.3559,0.351,0.365,0.3663,0.3674,0.3675,0.3688,0.3536,0.3536,0.3535,0.3535,0,0.2978,0.3033,0.3073,0.3163,0.3217,0.328,0.3342,0.3389,0.3408,0.344,0.3523,0.3553,0.3594,0.3624,0.3613,0.371,0.3677,0.367,0.3599,0.3699,0.3694,0.3705,0.3544,0.3542,0.3541,0.3539,0,0,0.2975,0.3099,0.3111,0.3151,0.3258,0.3306,0.3387,0.3469,0.3503,0.3572,0.3625,0.371,0.3714,0.3731,0.3743,0.3787,0.3877,0.376,0.3761,0.3748,0.3967,0.3943,0.3952,0.3897,0.39,0.3902,0.3928,0,0.3018,0.3125,0.3185,0.3277,0.3336,0.3394,0.3454,0.3527,0.3581,0.3644,0.37,0.3758,0.376,0.378,0.3838,0.387,0.3912,0.3868,0.3885,0.3884,0.3839,0.3967,0.39,0.3919,0.3939,0.394,0.3942,0,0.3079,0.314,0.3227,0.3317,0.3346,0.3395,0.3485,0.3548,0.3646,0.3687,0.3766,0.3803,0.3893,0.3874,0.3979,0.395,0.3966,0.3984,0.3985,0.3931,0.3883,0.3826,0.3937,0.3865,0.3958,0.3957,0.3955,0,0.305,0.3171,0.3228,0.3265,0.3372,0.3403,0.3455,0.3549,0.3617,0.3711,0.3774,0.3863,0.3929,0.3976,0.4028,0.4006,0.4125,0.4095,0.4086,0.4081,0.401,0.3995,0.4038,0.4171,0.4171,0.4171,0.4171,0,0.3074,0.3122,0.3207,0.3237,0.3288,0.3369,0.3431,0.3495,0.3613,0.3686,0.3784,0.3874,0.3966,0.4048,0.4055,0.4115,0.4153,0.4114,0.4109,0.4043,0.4032,0.3951,0.3907,0.4172,0.4172,0.4172,0.4172,0,0.3032,0.3099,0.316,0.3248,0.3274,0.3301,0.3422,0.3469,0.3587,0.3694,0.3733,0.3918,0.4012,0.4083,0.4164,0.4166,0.4102,0.4203,0.4097,0.4081,0.3984,0.3948,0.3796,0.3678,0.4187,0.4187,0.4187,0,0.302,0.3047,0.3131,0.3155,0.3188,0.325,0.3288,0.3427,0.3496,0.371,0.3759,0.3925,0.4024,0.4157,0.4186,0.4206,0.4087,0.4143,0.4101,0.3994,0.395,0.3768,0.3665,0.4035,0.4033,0.4032,0.4031,0,0.2978,0.2999,0.3037,0.3082,0.3121,0.3175,0.325,0.332,0.3472,0.3579,0.3729,0.3838,0.4027,0.4067,0.4142,0.4146,0.3974,0.412,0.4058,0.3885,0.364,0.3519,0.3964,0.4022,0.4023,0.4023,0.4024,0.4024,0.2919,0.2923,0.2964,0.2995,0.3042,0.3074,0.308,0.3188,0.3285,0.3408,0.3596,0.37,0.3918,0.4042,0.4019,0.3988,0.3904,0.391,0.3886,0.3717,0.3573,0.3979,0.4007,0.4008,0.4009,0.4009,0.401,0,0.2824,0.2844,0.2877,0.29,0.2896,0.296,0.3026,0.3014,0.3059,0.3223,0.3331,0.3537,0.3667,0.3799,0.3905,0.3796,0.3602,0.3695,0.3444,0.3363,0.3794,0.3763,0.3682,0.3682,0.3682,0.3682,0.3682,0.3682,0.2776,0.2763,0.2779,0.274,0.2752,0.2701,0.2707,0.2723,0.2808,0.2883,0.2979,0.3134,0.3503,0.3777,0.3763,0.3666,0.3367,0.324,0.3161,0.3526,0.3544,0.356,0.3523,0.3393,0.3393,0.2616,0.261,0.2606]},{"header":{"parameterUnit":"m.s-1","parameterCategory":2,"la1":30.2991,"la2":30.254,"lo1":-89.0895,"lo2":-89.0444,"dy":0.0017,"dx":0.0017,"nx":28,"ny":28,"refTime":"2025-04-26T03:00:00:Z","depth":"0","parameterNumber":3,"parameterNumberName":"V-component_of_CURRENTS"},"data":[0,0,0,0,0,0,0,0,0,0,0,0,0,0,0,0,0,0,0,0,0,0,0,0,0,0,0,0,0,0,0,0,0,0,0,0,0,0,0,0,0,0,0,0,0,0,0,0,0,0,0,0,0,0,0,0,0,0,0.0025,0.0024,0,-0.0078,-0.008,-0.0081,-0.0161,-0.0162,-0.0162,-0.0163,-0.0324,-0.0328,-0.0331,0,0,0,0,0,0,0,0,0,0,0,0,0,0.011,0.0109,0.0025,0.0024,0.0023,-0.0078,-0.008,-0.0081,-0.0161,-0.0162,-0.0162,-0.0163,-0.0323,-0.0327,-0.0332,0,0,0,0,0,0,0,0,0,0,0,0,0,0.0045,0.0108,0.0025,-0.0028,-0.0034,-0.0078,-0.008,-0.0082,-0.0161,-0.0162,-0.0163,-0.0164,-0.0321,-0.0327,-0.0332,-0.0348,0,0,-0.0349,-0.0352,0,0,0,0,0,0,0,0,0.0049,0.0042,-0.0019,-0.0024,-0.0031,-0.0106,-0.0109,-0.0173,-0.0161,-0.0114,-0.0163,-0.0164,-0.0255,-0.0266,-0.0285,-0.0356,-0.0362,-0.035,-0.0353,-0.0356,-0.0357,0,0,0,0,0,0,0,0.0053,0.0045,-0.0018,-0.002,-0.0027,-0.0062,-0.0072,-0.0121,-0.018,-0.0118,-0.0124,-0.0133,-0.0259,-0.0279,-0.0289,-0.0365,-0.035,-0.0355,-0.0358,-0.036,-0.047,-0.047,0,0,0,0,0,0,0.0073,0.005,-0.0014,-0.002,0.0009,-0.0062,-0.0073,-0.0082,-0.0179,-0.0193,-0.0132,-0.0136,-0.0269,-0.0283,-0.0295,-0.0305,-0.0355,-0.0361,-0.0364,-0.047,-0.047,-0.0469,0,0,0,0,0,0,0.0075,0.0068,-0.001,0.0014,0.0002,-0.0062,-0.0072,-0.0084,-0.0105,-0.0188,-0.0204,-0.014,-0.027,-0.0287,-0.0334,-0.0313,-0.0363,-0.0368,-0.0471,-0.047,-0.047,-0.0334,0,0,0,0,0,0,0.0078,0.0069,0.0074,0.0015,0.0001,-0.0021,-0.0071,-0.0085,-0.0108,-0.0114,-0.02,-0.0216,-0.0272,-0.0326,-0.034,-0.0321,-0.0373,-0.0471,-0.0471,-0.047,-0.0339,-0.0329,-0.032,0,0,0,0,0,0.0081,0.0099,0.0075,0.0068,0.0008,-0.002,-0.003,-0.008,-0.0107,-0.0105,-0.0167,-0.0214,-0.0331,-0.0329,-0.0347,-0.0329,-0.0472,-0.0471,-0.047,-0.0343,-0.0331,-0.0321,0,0,0,0,0,0,0.0142,0.009,0.0064,0.0065,0.003,-0.0033,-0.0032,-0.007,-0.0118,-0.0125,-0.0209,-0.0229,-0.0263,-0.0317,-0.0313,-0.036,-0.0409,-0.0411,-0.0307,-0.0296,-0.0287,-0.0246,-0.0377,0,0,0,0,0,0.0158,0.0154,0.0099,0.0102,0.009,0.0029,0.0013,-0.0021,-0.0072,-0.0094,-0.0154,-0.0219,-0.0272,-0.0299,-0.0355,-0.0377,-0.0418,-0.0379,-0.037,-0.0361,-0.0341,-0.0383,-0.0374,-0.0466,-0.0466,-0.0466,0,0,0.0181,0.0154,0.0151,0.0114,0.0083,0.0084,0.0017,0.0002,0.0002,-0.0104,-0.012,-0.0188,-0.0272,-0.0299,-0.0318,-0.034,-0.0356,-0.036,-0.0351,-0.0336,-0.0381,-0.0371,-0.0363,-0.0466,-0.0466,-0.0466,0,0,0.0239,0.0205,0.0224,0.0203,0.0168,0.0131,0.0132,0.0077,0.0051,0.002,-0.0053,-0.0101,-0.0185,-0.023,-0.0268,-0.024,-0.0307,-0.0265,-0.018,-0.0221,-0.0213,-0.0206,-0.0238,-0.0235,-0.0257,-0.0257,-0.0257,0,0.0274,0.0283,0.0228,0.0244,0.0239,0.0161,0.0187,0.0152,0.0089,0.0078,0.0033,-0.0076,-0.0147,-0.0175,-0.0168,-0.0214,-0.0249,-0.0212,-0.0205,-0.02,-0.0195,-0.0229,-0.0228,-0.025,-0.0251,-0.0252,-0.0252,0,0.0343,0.0351,0.0364,0.0356,0.0345,0.0353,0.0302,0.0287,0.024,0.0198,0.0156,0.0058,-0.0003,-0.0037,-0.0097,-0.0099,-0.0137,-0.0187,-0.0224,-0.0177,-0.0217,-0.0218,-0.0241,-0.0243,-0.0245,-0.0247,0,0,0.0422,0.0416,0.042,0.0435,0.0405,0.0404,0.041,0.0392,0.04,0.0326,0.033,0.0231,0.0174,0.0128,0.0046,0.0009,0.0004,-0.0064,-0.007,-0.0076,-0.0076,-0.0094,-0.0098,-0.0045,-0.0045,-0.0045,-0.0113,0,0.0496,0.055,0.0524,0.0576,0.06,0.0544,0.0556,0.0527,0.0484,0.0468,0.037,0.0331,0.0237,0.0206,0.016,0.0039,0.0006,0.0028,-0.0137,-0.0141,-0.0147,-0.0098,-0.0077,-0.0135,-0.0114,-0.0115,-0.0115,0,0.0574,0.0599,0.0662,0.0682,0.0688,0.0702,0.0707,0.0706,0.0661,0.0628,0.0578,0.0495,0.0431,0.0337,0.0188,0.0206,0.0088,-0.0009,-0.0015,-0.0076,-0.016,-0.0184,-0.0139,-0.0322,-0.0118,-0.0117,-0.0117,0,0.0652,0.0696,0.0748,0.0755,0.0764,0.0781,0.0779,0.0753,0.0775,0.0727,0.0736,0.0633,0.0589,0.0436,0.0241,0.0214,0.0074,0.0004,-0.0119,-0.0122,-0.0158,-0.0164,-0.0292,-0.0089,-0.0089,-0.0089,-0.0088,0,0.0736,0.0779,0.0786,0.0813,0.0882,0.0853,0.0913,0.0894,0.0897,0.094,0.0822,0.084,0.0612,0.05,0.0302,0.0105,0.012,-0.0081,-0.0132,-0.0111,-0.0112,-0.0319,-0.0442,-0.0091,-0.0091,-0.009,-0.009,0,0.0809,0.0813,0.0878,0.0904,0.0917,0.0959,0.1011,0.1057,0.1035,0.109,0.1086,0.1008,0.0858,0.0623,0.0378,0.0201,-0.0117,-0.0085,-0.0037,-0.008,-0.0365,-0.048,-0.0672,-0.0767,-0.0221,-0.0222,-0.0222,0,0.0851,0.0891,0.0946,0.0993,0.1006,0.1065,0.1115,0.1123,0.1184,0.1201,0.1248,0.1137,0.1091,0.0739,0.0392,0.0064,-0.0141,-0.0132,-0.0183,-0.0354,-0.0521,-0.0603,-0.0675,-0.0183,-0.0183,-0.0183,-0.0183,0,0.094,0.0951,0.1003,0.1097,0.116,0.1238,0.1309,0.1389,0.1405,0.1464,0.1528,0.1497,0.116,0.0864,0.0408,0.0161,-0.0262,-0.0146,-0.0341,-0.0502,-0.0582,-0.0706,-0.0166,-0.0185,-0.0185,-0.0184,-0.0184,-0.0184,0.1006,0.1061,0.1127,0.1216,0.1296,0.14,0.1482,0.1581,0.1703,0.1794,0.1752,0.1739,0.1291,0.0684,0.0331,-0.0278,-0.0305,-0.0453,-0.0577,-0.0642,-0.0734,-0.0184,-0.0253,-0.0254,-0.0254,-0.0254,-0.0254,0,0.1082,0.1147,0.1244,0.1349,0.1445,0.1465,0.1608,0.1704,0.1867,0.1952,0.2004,0.1788,0.1238,0.0648,-0.0163,-0.0603,-0.078,-0.0854,-0.0972,-0.1027,-0.0546,-0.0543,-0.0655,-0.0655,-0.0655,-0.0655,-0.0655,-0.0654,0.1128,0.1232,0.1277,0.1453,0.1529,0.1661,0.1746,0.1899,0.2003,0.2124,0.2126,0.209,0.1661,0.0216,-0.0759,-0.1004,-0.1335,-0.1408,-0.1576,-0.1258,-0.123,-0.1203,-0.1227,-0.1481,-0.1482,-0.1981,-0.1986,-0.199]}],[{"header":{"parameterUnit":"m.s-1","parameterCategory":2,"la1":30.2991,"la2":30.254,"lo1":-89.0895,"lo2":-89.0444,"dy":0.0017,"dx":0.0017,"nx":28,"ny":28,"refTime":"2025-04-26T03:00:00:Z","depth":"2","parameterNumber":2,"parameterNumberName":"U-component_of_CURRENTS"},"data":[0,0,0,0,0,0,0,0,0,0,0,0,0,0,0,0,0,0,0,0,0,0,0,0,0,0,0,0,0,0,0,0,0,0,0,0,0,0,0,0,0,0,0,0,0,0,0,0,0,0,0,0,0,0,0,0,0,0,0.2638,0.2639,0,0.2701,0.2701,0.2702,0.2762,0.2763,0.2763,0.2764,0.2805,0.2806,0.2806,0,0,0,0,0,0,0,0,0,0,0,0,0,0.2583,0.2584,0.2638,0.2639,0.2639,0.27,0.2701,0.2702,0.2762,0.2763,0.2764,0.2765,0.2805,0.2806,0.2806,0,0,0,0,0,0,0,0,0,0,0,0,0,0.2622,0.2584,0.2638,0.2676,0.2681,0.27,0.2701,0.2702,0.2762,0.2763,0.2764,0.2765,0.2805,0.2806,0.2806,0.2787,0,0,0.2808,0.2808,0,0,0,0,0,0,0,0,0.262,0.2624,0.267,0.2674,0.2678,0.2725,0.2697,0.273,0.2761,0.2731,0.2764,0.2766,0.2775,0.2778,0.2788,0.2789,0.2791,0.2808,0.2808,0.2809,0.2809,0,0,0,0,0,0,0,0.2617,0.2622,0.2663,0.2671,0.2676,0.2695,0.2702,0.2704,0.2746,0.2734,0.2738,0.2745,0.2778,0.2787,0.2789,0.2791,0.2808,0.2808,0.2809,0.2809,0.2858,0.2858,0,0,0,0,0,0,0.2608,0.2619,0.2661,0.2665,0.2652,0.2695,0.2703,0.2709,0.2746,0.2753,0.2744,0.2747,0.2786,0.2789,0.2791,0.2853,0.2809,0.2809,0.2809,0.2857,0.2858,0.2859,0,0,0,0,0,0,0.2606,0.2611,0.2658,0.2644,0.2651,0.2695,0.2701,0.2709,0.2735,0.2754,0.2761,0.2763,0.2787,0.279,0.286,0.2852,0.2809,0.281,0.2855,0.2857,0.2858,0.2924,0,0,0,0,0,0,0.2604,0.261,0.2612,0.2643,0.2651,0.2685,0.27,0.271,0.2736,0.2742,0.2772,0.2776,0.2788,0.286,0.2861,0.2852,0.281,0.2854,0.2856,0.2858,0.292,0.2927,0.2933,0,0,0,0,0,0.2602,0.263,0.2611,0.2617,0.2652,0.2686,0.2693,0.2727,0.2736,0.2753,0.2811,0.2776,0.2869,0.2863,0.2863,0.2854,0.2853,0.2856,0.2858,0.2917,0.2926,0.2933,0,0,0,0,0,0,0.2616,0.2638,0.262,0.2652,0.2661,0.2696,0.2751,0.273,0.2783,0.2822,0.2816,0.2826,0.2862,0.2861,0.2853,0.2872,0.2842,0.2845,0.2887,0.2895,0.2901,0.291,0.2811,0,0,0,0,0,0.261,0.2624,0.2641,0.2654,0.2699,0.2712,0.2731,0.2744,0.2791,0.2816,0.282,0.2847,0.2865,0.289,0.2897,0.2931,0.2935,0.2916,0.2922,0.2928,0.2935,0.2965,0.2975,0.2866,0.2866,0.2866,0,0,0.2617,0.2626,0.2635,0.2655,0.2703,0.2729,0.2732,0.2796,0.2794,0.2812,0.2851,0.2864,0.2876,0.2917,0.293,0.2925,0.2962,0.293,0.2935,0.294,0.2968,0.2979,0.2989,0.2867,0.2867,0.2867,0,0,0.2632,0.267,0.2689,0.2703,0.2751,0.2775,0.2787,0.2825,0.2851,0.2891,0.2889,0.2925,0.2948,0.2956,0.2965,0.3008,0.2983,0.2986,0.3043,0.3072,0.3081,0.309,0.3118,0.3128,0.3004,0.3004,0.3004,0,0.2615,0.2643,0.2697,0.2712,0.274,0.2792,0.2818,0.2847,0.2871,0.2896,0.2924,0.2957,0.2967,0.2993,0.3026,0.3019,0.304,0.3016,0.3082,0.309,0.3097,0.3124,0.3134,0.3007,0.3007,0.3007,0.3006,0,0.2624,0.2654,0.2701,0.2722,0.2758,0.2813,0.286,0.2893,0.2939,0.2941,0.2992,0.3033,0.3049,0.3044,0.3069,0.3099,0.3097,0.3075,0.3065,0.3112,0.3137,0.3147,0.3012,0.3011,0.301,0.3009,0,0,0.2561,0.2673,0.2683,0.2708,0.2779,0.2812,0.2869,0.2922,0.295,0.2999,0.3031,0.3083,0.3099,0.311,0.3109,0.3156,0.3237,0.3161,0.3161,0.3194,0.3317,0.3298,0.3307,0.3238,0.324,0.3242,0.3317,0,0.2544,0.2589,0.2642,0.2693,0.2757,0.2824,0.2855,0.2902,0.2969,0.3012,0.308,0.3113,0.3122,0.315,0.3197,0.3222,0.3266,0.3219,0.3261,0.3263,0.3244,0.3318,0.3073,0.3118,0.3326,0.3328,0.3329,0,0.2533,0.2567,0.2624,0.2715,0.2753,0.2764,0.2865,0.2894,0.2977,0.3035,0.3099,0.3134,0.321,0.3214,0.3303,0.3282,0.331,0.3335,0.3337,0.3303,0.3262,0.3102,0.3128,0.3345,0.3344,0.3343,0.3342,0,0.2499,0.2569,0.2622,0.2642,0.2731,0.2766,0.282,0.2898,0.2959,0.3047,0.3111,0.3176,0.3249,0.3294,0.3373,0.3347,0.348,0.3431,0.3431,0.3429,0.3219,0.3196,0.3487,0.3486,0.3486,0.3486,0.3486,0,0.248,0.252,0.2607,0.2627,0.2673,0.275,0.2808,0.2868,0.2973,0.3034,0.3117,0.3184,0.3285,0.3372,0.3401,0.3473,0.3499,0.3462,0.3457,0.3236,0.3215,0.34,0.3389,0.3489,0.3488,0.3488,0.3487,0,0.2448,0.251,0.2557,0.2638,0.2667,0.2697,0.2813,0.2848,0.2963,0.3052,0.3095,0.3241,0.335,0.3434,0.3528,0.3521,0.3568,0.3574,0.332,0.3285,0.3484,0.3476,0.3569,0.357,0.357,0.357,0.357,0,0.2439,0.2464,0.2543,0.2559,0.2595,0.2657,0.2697,0.2827,0.2879,0.3066,0.3105,0.3269,0.3348,0.3507,0.353,0.3581,0.3607,0.3363,0.3258,0.3512,0.3498,0.3489,0.348,0.3001,0.2997,0.2993,0.299,0,0.2385,0.2416,0.2446,0.249,0.2527,0.2574,0.2653,0.2701,0.2845,0.2934,0.3059,0.3153,0.3334,0.33,0.3404,0.3386,0.3335,0.329,0.3621,0.3032,0.2986,0.2969,0.2977,0.2957,0.296,0.2963,0.2964,0.2966,0.2324,0.232,0.2363,0.2388,0.2432,0.2465,0.2462,0.2561,0.2639,0.2742,0.2909,0.2968,0.3072,0.3113,0.3057,0.3022,0.3235,0.3075,0.3081,0.3093,0.3028,0.2986,0.2944,0.2947,0.295,0.2952,0.2955,0,0.2225,0.2236,0.2258,0.2261,0.2258,0.235,0.2399,0.2374,0.2397,0.2556,0.265,0.2531,0.2571,0.2659,0.2578,0.2618,0.2541,0.2496,0.2355,0.2395,0.2428,0.2321,0.2054,0.205,0.2047,0.2044,0,0,0.2168,0.2139,0.2146,0.2081,0.2107,0.2069,0.2081,0.2074,0.2144,0.2167,0.2204,0.2448,0.2597,0.2272,0.2271,0.2137,0.2228,0.206,0.2798,0.2672,0.27,0.28,0.2688,0,0,0,0,0]},{"header":{"parameterUnit":"m.s-1","parameterCategory":2,"la1":30.2991,"la2":30.254,"lo1":-89.0895,"lo2":-89.0444,"dy":0.0017,"dx":0.0017,"nx":28,"ny":28,"refTime":"2025-04-26T03:00:00:Z","depth":"2","parameterNumber":3,"parameterNumberName":"V-component_of_CURRENTS"},"data":[0,0,0,0,0,0,0,0,0,0,0,0,0,0,0,0,0,0,0,0,0,0,0,0,0,0,0,0,0,0,0,0,0,0,0,0,0,0,0,0,0,0,0,0,0,0,0,0,0,0,0,0,0,0,0,0,0,0,-0.0106,-0.0107,0,-0.0158,-0.0158,-0.0159,-0.0237,-0.0238,-0.0239,-0.0241,-0.0377,-0.038,-0.0382,0,0,0,0,0,0,0,0,0,0,0,0,0,-0.0112,-0.0111,-0.0106,-0.0107,-0.0107,-0.0158,-0.0158,-0.0159,-0.0237,-0.0238,-0.024,-0.0241,-0.0377,-0.038,-0.0383,0,0,0,0,0,0,0,0,0,0,0,0,0,-0.0132,-0.0111,-0.0106,-0.0151,-0.0155,-0.0157,-0.0158,-0.016,-0.0236,-0.0238,-0.024,-0.0242,-0.0376,-0.0379,-0.0383,-0.0369,0,0,-0.0394,-0.0396,0,0,0,0,0,0,0,0,-0.0131,-0.0132,-0.0144,-0.0148,-0.0153,-0.0191,-0.0211,-0.0233,-0.0236,-0.0207,-0.0241,-0.0243,-0.0321,-0.0329,-0.0336,-0.0376,-0.0382,-0.0395,-0.0397,-0.0399,-0.04,0,0,0,0,0,0,0,-0.0129,-0.0131,-0.0128,-0.0144,-0.0149,-0.0181,-0.0185,-0.0215,-0.0256,-0.021,-0.0215,-0.0218,-0.0324,-0.0332,-0.034,-0.0384,-0.0395,-0.0398,-0.04,-0.0402,-0.0458,-0.0457,0,0,0,0,0,0,-0.0115,-0.0129,-0.0127,-0.013,-0.0144,-0.0179,-0.0184,-0.0178,-0.0254,-0.0266,-0.0216,-0.0221,-0.0325,-0.0335,-0.0345,-0.0354,-0.0399,-0.0402,-0.0404,-0.0459,-0.0458,-0.0457,0,0,0,0,0,0,-0.0115,-0.0114,-0.0125,-0.013,-0.0133,-0.0176,-0.0169,-0.0178,-0.0189,-0.0257,-0.0272,-0.0218,-0.0326,-0.034,-0.0393,-0.036,-0.0404,-0.0407,-0.046,-0.0458,-0.0457,-0.036,0,0,0,0,0,0,-0.0115,-0.0114,-0.0105,-0.0128,-0.0132,-0.0121,-0.0168,-0.0178,-0.0187,-0.0194,-0.0264,-0.0278,-0.0329,-0.0387,-0.0397,-0.0366,-0.041,-0.0461,-0.0459,-0.0458,-0.0364,-0.0356,-0.0349,0,0,0,0,0,-0.0115,-0.0097,-0.0104,-0.0104,-0.0118,-0.012,-0.0125,-0.0164,-0.0185,-0.0182,-0.0248,-0.0276,-0.0384,-0.039,-0.0402,-0.0371,-0.0461,-0.0459,-0.0458,-0.0368,-0.0358,-0.0349,0,0,0,0,0,0,-0.0099,-0.0103,-0.0112,-0.0097,-0.0104,-0.0133,-0.0139,-0.0152,-0.0196,-0.0215,-0.0279,-0.0298,-0.0324,-0.0365,-0.0369,-0.0383,-0.0421,-0.0422,-0.0349,-0.034,-0.0332,-0.0313,-0.0413,0,0,0,0,0,-0.0086,-0.0066,-0.0083,-0.0065,-0.0077,-0.0102,-0.0108,-0.0127,-0.0166,-0.0187,-0.0231,-0.0284,-0.032,-0.0347,-0.0385,-0.04,-0.0438,-0.0384,-0.0376,-0.0369,-0.0361,-0.0402,-0.0397,-0.0451,-0.0451,-0.0451,0,0,-0.0076,-0.007,-0.0063,-0.0059,-0.0077,-0.0067,-0.0111,-0.0116,-0.0103,-0.0195,-0.0206,-0.0256,-0.0318,-0.0337,-0.0351,-0.0373,-0.0372,-0.0367,-0.036,-0.0356,-0.04,-0.0395,-0.039,-0.045,-0.045,-0.0451,0,0,-0.0026,-0.0044,-0.001,-0.0014,-0.0023,-0.0041,-0.0035,-0.006,-0.0078,-0.0094,-0.0151,-0.0192,-0.0244,-0.0281,-0.0307,-0.0277,-0.0325,-0.0278,-0.0227,-0.0267,-0.0263,-0.026,-0.0291,-0.0292,-0.0278,-0.0278,-0.0278,0,-0.0004,0.0028,-0.0001,0.0028,0.0028,-0.0021,0.0007,-0.001,-0.0042,-0.0054,-0.0091,-0.0162,-0.0214,-0.0234,-0.0229,-0.0256,-0.0288,-0.0257,-0.0256,-0.0254,-0.0252,-0.0286,-0.0287,-0.0273,-0.0273,-0.0274,-0.0274,0,0.0062,0.0086,0.0097,0.0121,0.012,0.0129,0.01,0.0093,0.0062,0.0041,0.0011,-0.0067,-0.0111,-0.0123,-0.0173,-0.0173,-0.0202,-0.0236,-0.0276,-0.024,-0.0278,-0.0282,-0.0266,-0.0268,-0.0269,-0.027,0,0,0.0126,0.0145,0.0151,0.0174,0.0164,0.0173,0.0181,0.0175,0.0181,0.0132,0.0136,0.0067,0.002,-0.0013,-0.0068,-0.0108,-0.0126,-0.0162,-0.0167,-0.0187,-0.0208,-0.0216,-0.0221,-0.0162,-0.0162,-0.0163,-0.0235,0,0.0191,0.0264,0.0252,0.031,0.0332,0.0288,0.0305,0.0289,0.0254,0.0241,0.0159,0.0137,0.0066,0.0046,-0.0004,-0.0091,-0.0132,-0.0102,-0.0246,-0.025,-0.0256,-0.0224,-0.0201,-0.0262,-0.0239,-0.024,-0.024,0,0.0266,0.0301,0.0368,0.0401,0.0404,0.0427,0.0426,0.0437,0.0394,0.0363,0.0314,0.0252,0.0196,0.0125,-0.0006,0.0016,-0.0083,-0.0161,-0.0167,-0.0211,-0.0264,-0.0298,-0.027,-0.0247,-0.0247,-0.0246,-0.0246,0,0.0331,0.0387,0.0443,0.0451,0.0473,0.0489,0.0494,0.0471,0.049,0.0442,0.0443,0.0351,0.0316,0.0184,0.003,0.001,-0.012,-0.0171,-0.0273,-0.0275,-0.03,-0.0304,-0.0266,-0.0266,-0.0266,-0.0266,-0.0266,0,0.0409,0.0454,0.0474,0.0501,0.0559,0.055,0.06,0.0584,0.0584,0.0615,0.0514,0.0518,0.0327,0.0231,0.0071,-0.0097,-0.009,-0.0253,-0.0291,-0.0265,-0.0264,-0.0293,-0.0295,-0.0269,-0.0268,-0.0267,-0.0267,0,0.0476,0.0491,0.0552,0.058,0.0595,0.0631,0.0681,0.0717,0.07,0.0739,0.0737,0.065,0.0523,0.0333,0.0123,-0.0029,-0.02,-0.0267,-0.0216,-0.0246,-0.0342,-0.0339,-0.0388,-0.0389,-0.039,-0.039,-0.0391,0,0.0518,0.0557,0.0607,0.0644,0.0658,0.0711,0.0756,0.0769,0.0817,0.0825,0.0857,0.0759,0.0702,0.0402,0.0122,-0.0144,-0.019,-0.0306,-0.0345,-0.0321,-0.0354,-0.0349,-0.0344,-0.0343,-0.0343,-0.0343,-0.0343,0,0.058,0.0592,0.0632,0.071,0.0764,0.0838,0.0904,0.0968,0.099,0.1027,0.1056,0.1017,0.0738,0.0483,0.0123,-0.007,-0.0261,-0.0315,-0.0304,-0.0308,-0.0283,-0.0313,-0.0309,-0.0343,-0.0343,-0.0343,-0.0343,-0.0343,0.0614,0.0647,0.0698,0.0773,0.0847,0.095,0.102,0.1105,0.1197,0.1263,0.1214,0.1164,0.0865,0.0418,0.009,-0.026,-0.0256,-0.0385,-0.0383,-0.0382,-0.0356,-0.0333,-0.0398,-0.0398,-0.0398,-0.0399,-0.0399,0,0.0653,0.069,0.076,0.0844,0.0937,0.0979,0.111,0.1185,0.1303,0.1371,0.1394,0.1121,0.083,0.0484,-0.0026,-0.0334,-0.0372,-0.0438,-0.041,-0.0408,-0.0406,-0.0381,-0.0429,-0.043,-0.0431,-0.0432,0,0,0.0671,0.0733,0.0764,0.09,0.0981,0.1115,0.1203,0.131,0.1389,0.1461,0.1448,0.1386,0.0961,0.0595,0.0171,-0.0123,-0.02,-0.0193,-0.0137,-0.0052,-0.0046,-0.0345,-0.0299,0,0,0,0,0]}],[{"header":{"parameterUnit":"m.s-1","parameterCategory":2,"la1":30.2991,"la2":30.254,"lo1":-89.0895,"lo2":-89.0444,"dy":0.0017,"dx":0.0017,"nx":28,"ny":28,"refTime":"2025-04-26T03:00:00:Z","depth":"4","parameterNumber":2,"parameterNumberName":"U-component_of_CURRENTS"},"data":[0,0,0,0,0,0,0,0,0,0,0,0,0,0,0,0,0,0,0,0,0,0,0,0,0,0,0,0,0,0,0,0,0,0,0,0,0,0,0,0,0,0,0,0,0,0,0,0,0,0,0,0,0,0,0,0,0,0,0.1371,0.1372,0,0.1431,0.1432,0.1432,0.1474,0.1474,0.1475,0.1475,0.1552,0.1553,0.1555,0,0,0,0,0,0,0,0,0,0,0,0,0,0.1297,0.1298,0.1371,0.1372,0.1373,0.1431,0.1432,0.1432,0.1474,0.1474,0.1475,0.1476,0.1551,0.1553,0.1555,0,0,0,0,0,0,0,0,0,0,0,0,0,0.1338,0.1299,0.1371,0.1402,0.1406,0.1431,0.1432,0.1432,0.1474,0.1474,0.1475,0.1476,0.1551,0.1553,0.1555,0.1554,0,0,0.1562,0.1563,0,0,0,0,0,0,0,0,0.1336,0.1341,0.1397,0.14,0.1404,0.1448,0.1434,0.1475,0.1473,0.1446,0.1475,0.1476,0.1519,0.1524,0.153,0.1558,0.1561,0.1562,0.1564,0.1565,0.1566,0,0,0,0,0,0,0,0.1333,0.1339,0.1393,0.1398,0.1402,0.1415,0.1422,0.1442,0.1476,0.1448,0.1452,0.1462,0.1521,0.1528,0.1533,0.1562,0.1562,0.1564,0.1566,0.1567,0.1733,0.1736,0,0,0,0,0,0,0.1329,0.1336,0.1391,0.1395,0.1374,0.1416,0.1423,0.1431,0.1476,0.1484,0.1461,0.1464,0.1524,0.153,0.1536,0.165,0.1565,0.1567,0.1568,0.173,0.1734,0.1737,0,0,0,0,0,0,0.1327,0.1333,0.1389,0.1368,0.1377,0.1417,0.1425,0.1432,0.1471,0.1486,0.1494,0.1498,0.1525,0.1532,0.1594,0.1649,0.1568,0.157,0.1727,0.1731,0.1735,0.1806,0,0,0,0,0,0,0.1325,0.1332,0.1349,0.1368,0.1378,0.1426,0.1425,0.1433,0.1475,0.148,0.1519,0.1525,0.1526,0.1591,0.1596,0.1651,0.1572,0.1723,0.1729,0.1734,0.18,0.1813,0.1823,0,0,0,0,0,0.1322,0.1341,0.1349,0.1357,0.1396,0.1427,0.1434,0.1463,0.1477,0.15,0.1537,0.1525,0.1631,0.1595,0.16,0.1657,0.172,0.1727,0.1734,0.1795,0.181,0.1823,0,0,0,0,0,0,0.1323,0.1347,0.1357,0.1385,0.1415,0.1436,0.1465,0.1481,0.1527,0.1545,0.1553,0.1562,0.1639,0.1642,0.1601,0.1726,0.1678,0.1686,0.1723,0.1737,0.1749,0.1748,0.1574,0,0,0,0,0,0.1329,0.1349,0.1374,0.1401,0.1418,0.1447,0.1469,0.1492,0.1527,0.1549,0.1582,0.1625,0.1666,0.1696,0.1728,0.1789,0.1794,0.1836,0.1847,0.1857,0.1864,0.1918,0.1935,0.1759,0.1759,0.1759,0,0,0.1334,0.1355,0.1365,0.1403,0.1429,0.1467,0.1463,0.1511,0.1555,0.155,0.1634,0.1664,0.1691,0.1765,0.18,0.1778,0.1914,0.1865,0.1873,0.1875,0.1927,0.1944,0.1958,0.1764,0.1763,0.1762,0,0,0.1358,0.1379,0.1405,0.1435,0.1485,0.1503,0.1525,0.1572,0.1609,0.1677,0.1698,0.1762,0.1821,0.186,0.1881,0.1978,0.197,0.2001,0.2062,0.2116,0.213,0.2142,0.2178,0.2192,0.2011,0.2011,0.2011,0,0.1366,0.1405,0.142,0.1461,0.1496,0.1524,0.157,0.1607,0.1676,0.1719,0.1718,0.1841,0.1864,0.1955,0.1997,0.2003,0.2027,0.2,0.2128,0.2141,0.2152,0.2185,0.2201,0.2015,0.2015,0.2014,0.2014,0,0.1405,0.145,0.1474,0.1531,0.1567,0.1616,0.1663,0.1722,0.1767,0.1805,0.1912,0.195,0.2023,0.2051,0.2052,0.2162,0.2151,0.213,0.2084,0.2174,0.2204,0.2219,0.2021,0.202,0.2018,0.2017,0,0,0.1387,0.1481,0.1494,0.1536,0.1613,0.1643,0.1728,0.1806,0.1869,0.1942,0.2028,0.2112,0.2141,0.2169,0.2193,0.2246,0.2349,0.2234,0.2235,0.2254,0.2469,0.2323,0.2324,0.2354,0.2357,0.236,0.2458,0,0.1419,0.1501,0.1544,0.1631,0.1677,0.1737,0.1808,0.1885,0.1951,0.2042,0.2104,0.2189,0.2183,0.2233,0.2288,0.2338,0.2392,0.2324,0.2392,0.2394,0.224,0.2338,0.2369,0.2469,0.2473,0.2475,0.2477,0,0.1443,0.1498,0.1584,0.1688,0.1715,0.1774,0.189,0.1958,0.208,0.2137,0.2231,0.2274,0.2387,0.2352,0.248,0.2442,0.2469,0.249,0.2494,0.234,0.2275,0.2362,0.2503,0.2501,0.2499,0.2497,0.2496,0,0.1412,0.1526,0.1596,0.1633,0.1749,0.1813,0.1882,0.1998,0.2068,0.2207,0.2275,0.2387,0.2465,0.2521,0.2577,0.2545,0.2694,0.2645,0.2537,0.2526,0.2593,0.2578,0.2729,0.2729,0.2729,0.2728,0.2728,0,0.1416,0.1479,0.1595,0.1632,0.1723,0.1812,0.1916,0.2002,0.2134,0.2213,0.2326,0.2399,0.2516,0.2605,0.2624,0.2633,0.2737,0.2565,0.255,0.2622,0.261,0.2603,0.2587,0.2732,0.2731,0.2731,0.273,0,0.1371,0.1452,0.1534,0.1664,0.1711,0.1774,0.1923,0.1986,0.2132,0.2241,0.2294,0.2454,0.2562,0.2654,0.2757,0.2686,0.2709,0.2684,0.2775,0.2761,0.249,0.2477,0.2559,0.2555,0.2551,0.2548,0.2546,0,0.1353,0.1394,0.153,0.1571,0.1637,0.1745,0.1808,0.1965,0.203,0.2243,0.228,0.2454,0.2537,0.2575,0.2673,0.2713,0.2679,0.2666,0.2555,0.2499,0.2477,0.247,0.2462,0.254,0.2539,0.2538,0.2537,0,0.1306,0.1364,0.1422,0.1506,0.158,0.1654,0.1765,0.1804,0.1976,0.213,0.2216,0.2283,0.2408,0.248,0.2548,0.256,0.2656,0.2628,0.2634,0.2529,0.2477,0.2457,0.2454,0.2525,0.2527,0.2528,0.2529,0,0.1262,0.128,0.1355,0.142,0.1503,0.1538,0.161,0.1693,0.1784,0.2014,0.2036,0.2219,0.2376,0.2404,0.2458,0.2475,0.2422,0.232,0.2341,0.2356,0.2244,0.2145,0.2095,0,0,0,0,0,0.1209,0.1214,0.126,0.1319,0.1395,0.1445,0.1566,0.1641,0.181,0.1818,0.1925,0.2023,0.2116,0.2215,0.2192,0.2369,0.2431,0.233,0.2323,0.2457,0.2471,0.2358,0,0,0,0,0,0,0.1172,0.1207,0.122,0.1221,0.1243,0.131,0.1379,0.1489,0.151,0.1691,0.176,0.1898,0.2028,0.2114,0.2154,0.2184,0.2135,0.2449,0.2443,0.2449,0.2462,0.2473,0.2362,0,0,0,0,0]},{"header":{"parameterUnit":"m.s-1","parameterCategory":2,"la1":30.2991,"la2":30.254,"lo1":-89.0895,"lo2":-89.0444,"dy":0.0017,"dx":0.0017,"nx":28,"ny":28,"refTime":"2025-04-26T03:00:00:Z","depth":"4","parameterNumber":3,"parameterNumberName":"V-component_of_CURRENTS"},"data":[0,0,0,0,0,0,0,0,0,0,0,0,0,0,0,0,0,0,0,0,0,0,0,0,0,0,0,0,0,0,0,0,0,0,0,0,0,0,0,0,0,0,0,0,0,0,0,0,0,0,0,0,0,0,0,0,0,0,0.0098,0.0097,0,0.0065,0.0065,0.0065,0.0054,0.0054,0.0054,0.0054,0.0004,0.0003,0.0001,0,0,0,0,0,0,0,0,0,0,0,0,0,0.0116,0.0116,0.0098,0.0097,0.0097,0.0065,0.0065,0.0065,0.0054,0.0054,0.0054,0.0054,0.0004,0.0003,0.0001,0,0,0,0,0,0,0,0,0,0,0,0,0,0.0099,0.0116,0.0098,0.0087,0.0085,0.0066,0.0065,0.0065,0.0054,0.0054,0.0054,0.0054,0.0005,0.0003,0.0001,-0.0013,0,0,-0.0006,-0.0006,0,0,0,0,0,0,0,0,0.01,0.0099,0.0089,0.0088,0.0086,0.0063,0.0053,0.0037,0.0054,0.0067,0.0054,0.0054,0.0021,0.0018,0.0013,-0.0016,-0.0018,-0.0006,-0.0007,-0.0008,-0.0008,0,0,0,0,0,0,0,0.0102,0.01,0.0086,0.0088,0.0087,0.0072,0.007,0.005,0.0045,0.0066,0.0065,0.006,0.002,0.0015,0.0012,-0.0019,-0.0006,-0.0008,-0.0009,-0.001,-0.008,-0.0081,0,0,0,0,0,0,0.0105,0.0101,0.0087,0.0085,0.0092,0.0072,0.0069,0.0071,0.0045,0.0041,0.006,0.0059,0.0019,0.0014,0.001,-0.0006,-0.0008,-0.001,-0.0011,-0.008,-0.008,-0.0081,0,0,0,0,0,0,0.0106,0.0105,0.0088,0.0091,0.0088,0.0071,0.0073,0.007,0.0065,0.004,0.0036,0.0057,0.0019,0.0013,-0.0004,-0.0008,-0.0011,-0.0013,-0.0079,-0.008,-0.0081,-0.0039,0,0,0,0,0,0,0.0107,0.0105,0.0108,0.0092,0.0088,0.0083,0.0073,0.007,0.0061,0.006,0.0036,0.0032,0.0018,-0.0001,-0.0006,-0.0011,-0.0014,-0.0078,-0.0079,-0.008,-0.004,-0.0038,-0.0037,0,0,0,0,0,0.0108,0.0117,0.0109,0.0107,0.0092,0.0083,0.008,0.0068,0.0061,0.0063,0.0045,0.0033,-0.0013,-0.0003,-0.0009,-0.0014,-0.0077,-0.0079,-0.008,-0.004,-0.0039,-0.0037,0,0,0,0,0,0,0.0127,0.0116,0.0107,0.0112,0.0099,0.0081,0.0082,0.0069,0.0056,0.0055,0.0031,0.0025,0.0007,-0.0013,-0.0002,-0.0041,-0.005,-0.0053,-0.0018,-0.0017,-0.0015,-0.0,-0.0016,0,0,0,0,0,0.0132,0.0136,0.0118,0.0121,0.0118,0.0098,0.0092,0.0082,0.0067,0.0062,0.0042,0.0017,-0.0005,-0.0016,-0.0038,-0.0055,-0.0079,-0.0067,-0.0066,-0.0065,-0.0059,-0.01,-0.0101,-0.0086,-0.0086,-0.0086,0,0,0.014,0.0133,0.0135,0.0125,0.0116,0.0115,0.0096,0.0091,0.0087,0.0058,0.0049,0.0022,-0.001,-0.0027,-0.0038,-0.0042,-0.0082,-0.0067,-0.0065,-0.006,-0.0101,-0.0102,-0.0104,-0.0087,-0.0086,-0.0086,0,0,0.0156,0.0153,0.0161,0.0153,0.014,0.0129,0.0128,0.0108,0.01,0.0086,0.006,0.0034,0.0002,-0.0021,-0.0038,-0.0047,-0.0075,-0.006,-0.004,-0.008,-0.0081,-0.0082,-0.0112,-0.0116,-0.006,-0.006,-0.006,0,0.0163,0.0173,0.016,0.0164,0.0164,0.0137,0.0146,0.0131,0.0106,0.0101,0.0089,0.0033,0.0005,-0.0021,-0.0025,-0.0043,-0.0067,-0.0038,-0.0077,-0.0079,-0.0081,-0.0111,-0.0116,-0.0058,-0.0058,-0.0058,-0.0058,0,0.0182,0.0191,0.0197,0.0195,0.0193,0.0196,0.0177,0.017,0.0153,0.0134,0.0106,0.0064,0.0033,0.0011,-0.0007,-0.0039,-0.0052,-0.0068,-0.0074,-0.0079,-0.0111,-0.0117,-0.0055,-0.0056,-0.0056,-0.0057,0,0,0.0199,0.0209,0.0212,0.0223,0.0212,0.0217,0.0212,0.0203,0.0207,0.0165,0.0161,0.0105,0.0079,0.0058,0.0021,-0.0018,-0.0057,-0.0045,-0.0048,-0.0063,-0.0138,-0.0131,-0.0138,-0.0079,-0.008,-0.0081,-0.0153,0,0.0218,0.0242,0.0239,0.0264,0.0278,0.0262,0.0266,0.0252,0.0234,0.0221,0.0164,0.0146,0.0097,0.0087,0.0037,-0.0027,-0.0071,-0.0035,-0.0141,-0.0143,-0.0128,-0.0144,-0.0083,-0.0158,-0.0159,-0.016,-0.0161,0,0.0239,0.0255,0.0285,0.0313,0.0318,0.0326,0.0338,0.0337,0.0308,0.0292,0.0253,0.0214,0.0155,0.0114,-0.0005,0.0022,-0.0054,-0.0113,-0.0117,-0.0128,-0.0149,-0.0155,-0.0173,-0.0172,-0.0171,-0.017,-0.0169,0,0.0266,0.0292,0.0323,0.0329,0.0347,0.0361,0.037,0.0358,0.0374,0.0339,0.0345,0.0261,0.0234,0.0123,0.0007,0.0,-0.0124,-0.0149,-0.022,-0.022,-0.022,-0.0218,-0.0242,-0.0242,-0.0242,-0.0241,-0.0241,0,0.0291,0.0318,0.034,0.0357,0.0402,0.04,0.044,0.0434,0.0437,0.0459,0.0387,0.0382,0.0234,0.015,0.0027,-0.0106,-0.0112,-0.0217,-0.024,-0.0202,-0.0197,-0.0225,-0.0222,-0.0244,-0.0243,-0.0243,-0.0242,0,0.0314,0.0328,0.0368,0.04,0.0417,0.0448,0.0499,0.0527,0.0521,0.0548,0.0545,0.0474,0.0365,0.0217,0.0043,-0.0064,-0.0202,-0.0252,-0.0187,-0.0206,-0.0279,-0.0273,-0.0339,-0.0339,-0.034,-0.034,-0.034,0,0.0327,0.0349,0.0403,0.0436,0.0453,0.0503,0.0542,0.0563,0.0598,0.0605,0.0622,0.0539,0.0469,0.0243,0.0069,-0.0161,-0.0202,-0.0279,-0.0298,-0.0273,-0.029,-0.0283,-0.0277,-0.0341,-0.0341,-0.0341,-0.0341,0,0.0348,0.0367,0.0401,0.0471,0.0521,0.0585,0.0642,0.0678,0.0704,0.0706,0.0691,0.0575,0.0452,0.026,0.0086,-0.0086,-0.0232,-0.0284,-0.0285,-0.0304,-0.0276,-0.0291,-0.0285,-0.0342,-0.0342,-0.0342,-0.0342,0,0.0364,0.0389,0.0436,0.05,0.057,0.0643,0.0673,0.0717,0.0754,0.0761,0.0753,0.0617,0.0538,0.0299,0.0137,-0.0025,-0.0082,-0.0153,-0.0162,-0.0163,-0.0097,-0.0036,-0.0047,0,0,0,0,0,0.0376,0.0406,0.0463,0.0534,0.0608,0.0654,0.0731,0.0756,0.0787,0.079,0.0777,0.0664,0.0432,0.0333,0.0174,0.0105,-0.0124,-0.0091,-0.0215,-0.0349,-0.0348,-0.03,0,0,0,0,0,0,0.0382,0.0431,0.0459,0.0553,0.061,0.0697,0.075,0.0774,0.0778,0.0783,0.0672,0.0612,0.0394,0.0531,0.017,0.0119,0.0014,-0.0197,-0.0201,-0.035,-0.0349,-0.0348,-0.0298,0,0,0,0,0]}]]